STARLINK-1221 (45227 NORAD) Tracking and Keplerian Element Data

This shows tracking and keplerian element data for the satellite.

Feedback or suggestion? Click here.




ElementValue
Catalog45227
NameSTARLINK-1221
Epoch Orbit655
Epoch Day88.25001157
Epoch Year2020
RAAN72.2958
Inclination53.0016
Eccentricity0.0008308
Argument of Perigee292.5138
Mean Anonmoly233.9943
Mean Motion15.6316443
Decay Rate1.292E-05
L11 45227U 20012BB 20088.25001157 .00001292 00000-0 19723-4 0 9994
L22 45227 53.0016 72.2958 0008308 292.5138 233.9943 15.63164430 6551

Live tracking and technical data element details for STARLINK-1221 (NORAD 45227). STARLINK-1221 can be tracked NOW for your location showing map with azimuth and elevation plus other details from your city location.

Track the satellite on the map from your city or location and see movement details for azimuth, elevation, latitude, longitude, range, height, and movement on the map or in text.







IsCatalogInMostPopularTable: catalog: 45227, numindb: 15
Update: records affected: 1



GetName: 45227 STARLINK-1221

Hit Count: updated at: Tue, 31 Mar 2020 12:18:19 GMT